TimeWET,TemperatureF,Dew PointF,Humidity,Sea Level PressureIn,VisibilityMPH,Wind Direction,Wind SpeedMPH,Gust SpeedMPH,PrecipitationIn,Events,Conditions,WindDirDegrees,DateUTC
12:00 AM,56,49,69,30.05,5,East,6.9,,,,Scattered Clouds,100,2012-10-16 00:00:00
12:00 AM,55.4,48.2,77,30.04,5.0,East,6.9,-,N/A,,Partly Cloudy,100,2012-10-16 00:00:00
12:30 AM,55.4,48.2,77,30.04,5.0,East,5.8,-,N/A,,Partly Cloudy,100,2012-10-16 00:30:00
1:00 AM,55.4,46.4,72,30.04,5.0,East,3.5,-,N/A,,Partly Cloudy,90,2012-10-16 01:00:00
1:30 AM,55.4,48.2,77,30.04,1.2,East,5.8,-,N/A,,Partly Cloudy,100,2012-10-16 01:30:00
2:00 AM,53.6,48.2,82,30.01,1.1,East,6.9,-,N/A,,Partly Cloudy,90,2012-10-16 02:00:00
2:30 AM,53.6,46.4,77,30.01,1.1,East,3.5,-,N/A,,Partly Cloudy,80,2012-10-16 02:30:00
3:00 AM,54,46,67,30.01,1,ENE,2.3,,,,,70,2012-10-16 03:00:00
3:00 AM,53.6,46.4,77,30.01,1.1,ENE,2.3,-,N/A,,Unknown,60,2012-10-16 03:00:00
3:30 AM,53.6,48.2,82,30.01,1.1,East,4.6,-,N/A,,Unknown,100,2012-10-16 03:30:00
4:00 AM,51.8,46.4,82,29.98,1.1,Calm,Calm,-,N/A,,Unknown,0,2012-10-16 04:00:00
4:30 AM,51.8,46.4,82,30.01,1.1,Variable,1.2,-,N/A,,Unknown,0,2012-10-16 04:30:00
5:00 AM,53.6,48.2,82,30.01,1.1,Variable,2.3,-,N/A,,Unknown,0,2012-10-16 05:00:00
5:30 AM,51.8,46.4,82,30.01,1.1,East,3.5,-,N/A,,Unknown,100,2012-10-16 05:30:00
6:00 AM,52,47,78,30.01,5,ESE,3.5,,,,Partly Cloudy,110,2012-10-16 06:00:00
6:00 AM,51.8,46.4,82,30.01,5.0,ESE,3.5,-,N/A,,Scattered Clouds,110,2012-10-16 06:00:00
6:30 AM,51.8,48.2,88,30.01,5.0,Calm,Calm,-,N/A,,Scattered Clouds,0,2012-10-16 06:30:00
7:00 AM,53.6,48.2,82,30.01,5.0,Calm,Calm,-,N/A,,Unknown,0,2012-10-16 07:00:00
7:30 AM,59.0,55.4,88,30.01,5.0,ESE,4.6,-,N/A,,Unknown,120,2012-10-16 07:30:00
8:00 AM,62.6,55.4,77,30.01,5.0,East,9.2,-,N/A,,Unknown,90,2012-10-16 08:00:00
8:30 AM,64.4,53.6,68,30.01,5.0,East,10.4,-,N/A,,Unknown,90,2012-10-16 08:30:00
9:00 AM,67,53,52,30.04,6,East,10.4,,,,,90,2012-10-16 09:00:00
9:00 AM,66.2,53.6,64,30.04,-9999.0,East,11.5,-,N/A,,Clear,90,2012-10-16 09:00:00
9:30 AM,68.0,51.8,56,30.04,-9999.0,East,11.5,-,N/A,,Clear,90,2012-10-16 09:30:00
10:00 AM,69.8,53.6,56,30.04,-9999.0,East,12.7,-,N/A,,Clear,80,2012-10-16 10:00:00
10:30 AM,71.6,53.6,53,30.04,-9999.0,ENE,13.8,-,N/A,,Clear,70,2012-10-16 10:30:00
11:00 AM,71.6,55.4,57,30.04,-9999.0,ENE,17.3,-,N/A,,Clear,60,2012-10-16 11:00:00
11:30 AM,71.6,57.2,60,30.01,-9999.0,ENE,15.0,-,N/A,,Clear,60,2012-10-16 11:30:00
12:00 PM,74,54,39,30.01,6,East,15.0,,,,,80,2012-10-16 12:00:00
12:00 PM,73.4,53.6,50,30.01,-9999.0,East,15.0,-,N/A,,Clear,80,2012-10-16 12:00:00
12:30 PM,73.4,53.6,50,29.98,-9999.0,ENE,16.1,-,N/A,,Clear,60,2012-10-16 12:30:00
1:00 PM,73.4,57.2,57,29.98,-9999.0,NE,18.4,-,N/A,,Clear,50,2012-10-16 13:00:00
1:30 PM,71.6,57.2,60,29.95,-9999.0,ENE,20.7,-,N/A,,Clear,60,2012-10-16 13:30:00
2:00 PM,73.4,57.2,57,29.95,-9999.0,ENE,19.6,-,N/A,,Clear,60,2012-10-16 14:00:00
2:30 PM,71.6,57.2,60,29.95,-9999.0,ENE,19.6,-,N/A,,Clear,60,2012-10-16 14:30:00
3:00 PM,71,57,52,29.94,6,ENE,20.7,,,,,70,2012-10-16 15:00:00
3:00 PM,71.6,57.2,60,29.92,-9999.0,ENE,20.7,-,N/A,,Clear,70,2012-10-16 15:00:00
3:30 PM,71.6,59.0,64,29.92,-9999.0,ENE,19.6,-,N/A,,Clear,60,2012-10-16 15:30:00
4:00 PM,69.8,57.2,64,29.92,-9999.0,ENE,17.3,-,N/A,,Clear,60,2012-10-16 16:00:00
4:30 PM,69.8,59.0,68,29.92,-9999.0,ENE,17.3,-,N/A,,Clear,60,2012-10-16 16:30:00
5:00 PM,69.8,59.0,68,29.92,-9999.0,East,15.0,-,N/A,,Clear,80,2012-10-16 17:00:00
6:00 PM,68,50,41,29.93,6,East,11.5,,,,Clear,90,2012-10-16 18:00:00
6:00 PM,68.0,50.0,52,29.92,-9999.0,East,12.7,-,N/A,,Clear,90,2012-10-16 18:00:00
6:30 PM,68.0,50.0,52,29.92,-9999.0,East,11.5,-,N/A,,Clear,90,2012-10-16 18:30:00
7:00 PM,66.2,51.8,60,29.92,-9999.0,East,13.8,-,N/A,,Clear,100,2012-10-16 19:00:00
7:30 PM,66.2,50.0,56,29.92,-9999.0,East,10.4,-,N/A,,Clear,100,2012-10-16 19:30:00
8:00 PM,64.4,48.2,56,29.92,-9999.0,ESE,9.2,-,N/A,,Clear,110,2012-10-16 20:00:00
8:30 PM,62.6,46.4,55,29.92,-9999.0,ESE,10.4,-,N/A,,Clear,110,2012-10-16 20:30:00
9:00 PM,63,47,46,29.94,6,ESE,10.4,,,,,110,2012-10-16 21:00:00
9:00 PM,62.6,48.2,59,29.92,-9999.0,ESE,10.4,-,N/A,,Clear,110,2012-10-16 21:00:00
9:30 PM,62.6,48.2,59,29.95,-9999.0,East,9.2,-,N/A,,Clear,90,2012-10-16 21:30:00
10:00 PM,62.6,48.2,59,29.95,-9999.0,East,10.4,-,N/A,,Clear,100,2012-10-16 22:00:00
10:30 PM,62.6,50.0,63,29.95,-9999.0,East,10.4,-,N/A,,Clear,100,2012-10-16 22:30:00
11:00 PM,62.6,50.0,63,29.92,-9999.0,ESE,11.5,-,N/A,,Clear,110,2012-10-16 23:00:00
11:30 PM,62.6,50.0,63,29.92,-9999.0,East,11.5,-,N/A,,Clear,100,2012-10-16 23:30:00